VR2MW-X Weather Reports


time (UTC)temp
C
wind
direction
speed
KPH
gust
KPH
rain 1hr
cm
rain 24hr
cm
rain mn
cm
humidity
%
barometer
mb
20260505063422 22 0.0 0.0 0.00 0.00 0.00 86 1013.5
20260505062411 22 0.0 0.0 0.00 0.00 0.00 87 1013.5
20260505061400 22 0.0 0.0 0.00 0.00 0.00 87 1013.6
20260505060348 22 0.0 0.0 0.00 0.00 0.00 89 1013.7
20260505055337 22 0.0 0.0 0.00 0.00 0.00 89 1013.6
20260505054326 22 0.0 0.0 0.00 0.00 0.00 88 1013.7
20260505053316 22 0.0 0.0 0.00 0.00 0.00 90 1014.1
20260505052305 22 0.0 0.0 0.00 0.00 0.00 91 1014.2
20260505051254 22 0.0 0.0 0.00 0.00 0.00 93 1014.3
20260505050244 21 0.0 0.0 0.00 0.00 0.00 91 1014.5
20260505041152 21 0.0 0.0 0.00 0.00 0.00 95 1015.3
20260505040141 21 0.0 0.0 0.00 0.00 0.00 95 1015.2
20260505035131 20 0.0 0.0 0.00 0.00 0.00 94 1015.2
20260505034121 20 0.0 0.0 0.00 0.00 0.00 95 1015.2
20260505033110 20 0.0 0.0 0.00 0.00 0.00 94 1015.3
20260505032059 20 0.0 0.0 0.00 0.00 0.00 96 1015.6
20260505031049 20 0.0 0.0 0.00 0.00 0.00 95 1015.7
20260505030038 20 0.0 0.0 0.00 0.00 0.00 94 1015.7
20260505025028 20 0.0 0.0 0.00 0.00 0.00 95 1015.7
20260505024017 20 0.0 0.0 0.00 0.00 0.00 94 1015.7
20260505023006 20 0.0 0.0 0.00 0.00 0.00 95 1015.7
20260505021955 20 0.0 0.0 0.00 0.00 0.00 96 1015.7
20260505020945 20 0.0 0.0 0.00 0.00 0.00 96 1015.6
20260505015934 20 0.0 0.0 0.00 0.00 0.00 95 1015.5
20260505014924 20 0.0 0.0 0.00 0.00 0.00 96 1015.5
20260505013913 20 0.0 0.0 0.00 0.00 0.00 96 1015.7
20260505012903 20 0.0 0.0 0.00 0.00 0.00 95 1015.7
20260505011853 20 0.0 0.0 0.00 0.00 0.00 95 1015.7
20260505010842 20 0.0 0.0 0.00 0.00 0.00 96 1015.7
20260505005832 20 0.0 0.0 0.00 0.00 0.00 95 1015.6
20260505004822 20 0.0 0.0 0.00 0.00 0.00 94 1015.3
20260505003811 20 0.0 0.0 0.00 0.00 0.00 95 1015.2
20260505002801 20 0.0 0.0 0.00 0.00 0.00 94 1015.0
20260505001750 20 0.0 0.0 0.00 0.00 0.00 94 1015.0
20260505000740 20 0.0 0.0 0.00 0.00 0.00 92 1014.8
20260504235729 20 0.0 0.0 0.00 0.00 0.00 92 1014.7
20260504234719 20 0.0 0.0 0.00 0.00 0.00 93 1014.6
20260504233708 20 0.0 0.0 0.00 0.00 0.00 92 1014.6
20260504232656 20 0.0 0.0 0.00 0.00 0.00 92 1014.1
20260504231645 20 0.0 0.0 0.00 0.00 0.00 92 1014.1
20260504230634 20 0.0 0.0 0.00 0.00 0.00 94 1014.2
20260504225624 20 0.0 0.0 0.00 0.00 0.00 94 1014.2
20260504224609 20 0.0 0.0 0.00 0.00 0.00 93 1014.1
20260504223559 20 0.0 0.0 0.00 0.00 0.00 91 1014.1
20260504222545 20 0.0 0.0 0.00 0.00 0.00 89 1014.2
20260504221535 21 0.0 0.0 0.00 0.00 0.00 83 1013.8
20260504220525 22 0.0 0.0 0.00 0.00 0.00 78 1014.1
20260504215514 22 0.0 0.0 0.00 0.00 0.00 78 1014.1
20260504214503 22 0.0 0.0 0.00 0.00 0.00 78 1013.7
20260504213451 22 0.0 0.0 0.00 0.00 0.00 79 1013.7
20260504212440 22 0.0 0.0 0.00 0.00 0.00 79 1013.7
20260504211429 22 0.0 0.0 0.00 0.00 0.00 80 1013.5
20260504210419 22 0.0 0.0 0.00 0.00 0.00 80 1013.7
20260504205409 22 0.0 0.0 0.00 0.00 0.00 80 1013.7
20260504204358 22 0.0 0.0 0.00 0.00 0.00 80 1013.7
20260504203348 22 0.0 0.0 0.00 0.00 0.00 80 1013.7
20260504202337 22 0.0 0.0 0.00 0.00 0.00 81 1013.5
20260504201327 22 0.0 0.0 0.00 0.00 0.00 81 1013.6
20260504200317 22 0.0 0.0 0.00 0.00 0.00 82 1013.5
20260504195306 22 0.0 0.0 0.00 0.00 0.00 82 1013.6
20260504194256 22 0.0 0.0 0.00 0.00 0.00 82 1013.6
20260504193245 22 0.0 0.0 0.00 0.00 0.00 82 1013.6
20260504192235 22 0.0 0.0 0.00 0.00 0.00 82 1013.7
20260504191225 22 0.0 0.0 0.00 0.00 0.00 84 1013.5
20260504190214 22 0.0 0.0 0.00 0.00 0.00 85 1013.7
20260504185203 22 0.0 0.0 0.00 0.00 0.00 85 1013.7
20260504184153 22 0.0 0.0 0.00 0.00 0.00 86 1013.8
20260504183142 22 0.0 0.0 0.00 0.00 0.00 85 1014.0
20260504182132 22 0.0 0.0 0.00 0.00 0.00 85 1014.1
20260504181121 -17 0.0 0.0 0.00 0.00 0.00
20260504180111 22 0.0 0.0 0.00 0.00 0.00 82 1014.7
20260504175100 22 0.0 0.0 0.00 0.00 0.00 81 1014.8
20260504174050 22 0.0 0.0 0.00 0.00 0.00 82 1014.8
20260504173040 22 0.0 0.0 0.00 0.00 0.00 82 1014.8
20260504172029 22 0.0 0.0 0.00 0.00 0.00 82 1015.0
20260504171019 22 0.0 0.0 0.00 0.00 0.00 81 1015.2
20260504150808 22 0.0 0.0 0.00 0.00 0.00 85 1016.0
20260504140704 22 0.0 0.0 0.00 0.00 0.00 87 1015.7
20260504130600 22 0.0 0.0 0.00 0.00 0.00 86 1015.1
20260504110350 22 0.0 0.0 0.00 0.00 0.00 93 1014.7
20260504100247 22 0.0 0.0 0.00 0.00 0.00 89 1014.1
20260504081051 25 0.0 0.0 0.00 0.00 0.00 71 1014.6